Weather History for Siemreap, Cambodia

Change the Weather History Date:

Monday, April 7, 2014

  Actual Average Record
Temperature  
Mean Temperature 84 °F -  
Max Temperature 95 °F - - ()
Min Temperature 73 °F - - ()
Cooling Degree Days 19    
Growing Degree Days 34 (Base 50)    
Moisture  
Dew Point 73 °F    
Average Humidity 66    
Maximum Humidity 89    
Minimum Humidity 36    
Precipitation  
Precipitation 0.00 in - - ()
Sea Level Pressure  
Sea Level Pressure 29.82 in    
Wind  
Wind Speed 4 mph ()    
Max Wind Speed 8 mph    
Max Gust Speed -    
Visibility 6.1 miles    
Events      
T = Trace of Precipitation, MM = Missing Value Source: Averaged Metar Reports

Daily Weather History Graph

Daily Weather History Graph

Search for Another Location

Airport:

Trip Planner

Search our weather history database for the weather conditions in past years. The results will help you decide how hot, cold, wet, or windy it might be!

Date:

Astronomy

Apr. 07, 2014 Rise Set
Actual Time 5:57 AM ICT 6:16 PM ICT
Civil Twilight 5:35 AM ICT 6:38 PM ICT
Nautical Twilight 5:10 AM ICT 7:03 PM ICT
Astronomical Twilight 4:45 AM ICT 7:28 PM ICT
Moon 11:51 AM ICT (4/7) 12:03 AM ICT (4/7)
Length of Visible Light 13h 02m
Length of Day
12h 19m
Waxing Crescent, 49% of the Moon is Illuminated
Apr 7
Waxing Crescent
Apr 7
First Quarter
Apr 15
Full
Apr 22
Last Quarter
Apr 29
New

Hourly Weather History & Observations

Time (ICT) Temp. Heat Index Dew Point Humidity Pressure Visibility Wind Dir Wind Speed Gust Speed Precip Events Conditions
12:00 AM 80.6 °F 87.1 °F 77.0 °F 89% 29.83 in 5.6 mi NNE 2.3 mph - N/A   Unknown
12:30 AM 78.8 °F - 75.2 °F 89% 29.83 in 5.6 mi ENE 2.3 mph - N/A   Unknown
1:00 AM 78.8 °F - 75.2 °F 89% 29.80 in 5.6 mi WSW 2.3 mph - N/A   Unknown
7:00 AM - - - %  in - Calm Calm - -  
7:00 AM 78.8 °F - 75.2 °F 89% 29.86 in 5.6 mi Calm Calm - N/A   Unknown
7:30 AM 78.8 °F - 75.2 °F 89% 29.86 in 5.6 mi Calm Calm - N/A   Unknown
8:00 AM 80.6 °F 86.2 °F 75.2 °F 84% 29.89 in - NNW 4.6 mph - N/A   Clear
8:30 AM 82.4 °F 89.5 °F 75.2 °F 79% 29.89 in - Calm Calm - N/A   Clear
9:00 AM 82.4 °F 89.5 °F 75.2 °F 79% 29.89 in - Calm Calm - N/A   Clear
9:30 AM 86.0 °F 95.1 °F 75.2 °F 70% 29.92 in - WSW 6.9 mph - N/A   Clear
10:00 AM 86.0 °F 95.1 °F 75.2 °F 70% 29.92 in - SSW 8.1 mph - N/A   Clear
10:30 AM 89.6 °F 99.8 °F 75.2 °F 62% 29.89 in - WSW 8.1 mph - N/A   Clear
11:30 AM 91.4 °F 100.1 °F 73.4 °F 55% 29.89 in - West 5.8 mph - N/A   Clear
12:00 PM 91.4 °F 98.4 °F 71.6 °F 52% 29.89 in 6.2 mi SSE 5.8 mph - N/A   Scattered Clouds
12:30 PM 93.2 °F 100.5 °F 71.6 °F 49% 29.86 in 6.2 mi South 8.1 mph - N/A   Scattered Clouds
1:00 PM 93.2 °F 100.5 °F 71.6 °F 49% 29.83 in 6.2 mi SSE 8.1 mph - N/A   Scattered Clouds
1:30 PM 93.2 °F 100.5 °F 71.6 °F 49% 29.83 in 6.2 mi West 6.9 mph - N/A   Partly Cloudy
2:00 PM 93.2 °F 100.5 °F 71.6 °F 49% 29.83 in 6.2 mi South 6.9 mph - N/A   Partly Cloudy
2:30 PM 93.2 °F 96.2 °F 66.2 °F 41% 29.77 in 6.2 mi SW 6.9 mph - N/A   Partly Cloudy
3:00 PM 95.0 °F 98.5 °F 66.2 °F 39% 29.77 in 6.2 mi Variable 3.5 mph - N/A   Partly Cloudy
3:30 PM 95.0 °F 98.5 °F 66.2 °F 39% 29.74 in 6.2 mi West 4.6 mph - N/A   Partly Cloudy
4:00 PM 95.0 °F 97.0 °F 64.4 °F 36% 29.74 in 6.2 mi WSW 4.6 mph - N/A   Partly Cloudy
4:30 PM 95.0 °F 97.0 °F 64.4 °F 36% 29.71 in 6.2 mi South 4.6 mph - N/A   Partly Cloudy
5:00 PM 93.2 °F 96.2 °F 66.2 °F 41% 29.71 in 6.2 mi South 4.6 mph - N/A   Partly Cloudy
5:30 PM 93.2 °F 96.2 °F 66.2 °F 41% 29.74 in 6.2 mi SSW 5.8 mph - N/A   Partly Cloudy
6:30 PM 87.8 °F 93.8 °F 71.6 °F 58% 29.74 in 6.2 mi SSE 2.3 mph - N/A   Partly Cloudy
7:00 PM 86.0 °F 93.4 °F 73.4 °F 66% 29.77 in 6.2 mi South 2.3 mph - N/A   Partly Cloudy
7:30 PM 86.0 °F 95.1 °F 75.2 °F 70% 29.77 in 6.2 mi SSW 3.5 mph - N/A   Partly Cloudy
8:00 PM 86.0 °F 96.9 °F 77.0 °F 74% 29.80 in 6.2 mi Variable 2.3 mph - N/A   Partly Cloudy
8:30 PM 84.2 °F 96.1 °F 78.8 °F 84% 29.80 in 6.2 mi West 6.9 mph - N/A   Partly Cloudy
9:00 PM 84.2 °F 96.1 °F 78.8 °F 84% 29.80 in 6.2 mi SW 4.6 mph - N/A   Partly Cloudy
9:30 PM 82.4 °F 90.9 °F 77.0 °F 84% 29.83 in 6.2 mi WSW 4.6 mph - N/A   Partly Cloudy
10:00 PM 82.4 °F 90.9 °F 77.0 °F 84% 29.83 in 6.2 mi WSW 5.8 mph - N/A   Partly Cloudy
10:30 PM 82.4 °F 89.5 °F 75.2 °F 79% 29.83 in 6.2 mi WSW 3.5 mph - N/A   Partly Cloudy
11:00 PM 82.4 °F 89.5 °F 75.2 °F 79% 29.83 in 6.2 mi WSW 5.8 mph - N/A   Partly Cloudy
11:30 PM 80.6 °F 86.2 °F 75.2 °F 84% 29.83 in 6.2 mi Variable 2.3 mph - N/A   Partly Cloudy